Vernal, UT

6:41 PM MDT on March 30, 2017 (GMT -0600)
Vernal

Weather History for KVEL - January, 2013

Change the Weather History Date:

Tuesday, January 8, 2013

  Actual Average Record
Temperature  
Mean Temperature 5 °F 19 °F  
Max Temperature 13 °F 28 °F 54 °F (1945)
Min Temperature -4 °F 9 °F -27 °F (1950)
Degree Days  
Heating Degree Days 60 46  
Month to date heating degree days 538 368  
Since 1 July heating degree days 3226 3339  
Cooling Degree Days 0 0  
Month to date cooling degree days 0 0  
Year to date cooling degree days 0 0  
Moisture  
Dew Point -3 °F    
Average Humidity 74    
Maximum Humidity 87    
Minimum Humidity 61    
Precipitation  
Precipitation 0.00 in 0.02 in 0.21 in (1993)
Month to date precipitation T 0.16  
Year to date precipitation T 0.16  
Sea Level Pressure  
Sea Level Pressure 30.57 in    
Wind  
Wind Speed 2 mph (ENE)    
Max Wind Speed 8 mph    
Max Gust Speed 10 mph    
Visibility 5 miles    
Events      
T = Trace of Precipitation, MM = Missing Value Source: NWS Daily Summary

Daily Weather History Graph

Daily Weather History Graph

Search for Another Location

Airport or City:

Trip Planner

Search our weather history database for the weather conditions in past years. The results will help you decide how hot, cold, wet, or windy it might be!

Date:

Astronomy

Jan. 08, 2013 Rise Set
Actual Time 7:41 AM MST 5:09 PM MST
Civil Twilight 7:10 AM MST 5:39 PM MST
Nautical Twilight 6:36 AM MST 6:13 PM MST
Astronomical Twilight 6:03 AM MST 6:46 PM MST
Moon 4:17 AM MST (1/8) 2:14 PM MST (1/8)
Length of Visible Light 10h 28m
Length of Day
9h 27m
Waning Crescent, 13% of the Moon is Illuminated
Jan 8
Waning Crescent
Jan 11
New
Jan 18
First Quarter
Jan 26
Full
Feb 3
Last Quarter

Hourly Weather History & Observations

Time (MST) Temp. Windchill Dew Point Humidity Pressure Visibility Wind Dir Wind Speed Gust Speed Precip Events Conditions
12:53 AM 1.0 °F -6.7 °F -4.0 °F 79% 30.42 in 6.0 mi West 3.5 mph - N/A   Haze
1:53 AM -0.9 °F -8.9 °F -5.1 °F 83% 30.44 in 6.0 mi SSE 3.5 mph - N/A   Clear
2:53 AM -2.9 °F -11.2 °F -7.1 °F 82% 30.46 in 4.0 mi WNW 3.5 mph - N/A   Clear
3:53 AM -2.0 °F - -6.0 °F 83% 30.45 in 4.0 mi Calm Calm - N/A   Clear
4:53 AM -2.9 °F - -7.1 °F 82% 30.45 in 5.0 mi Calm Calm - N/A   Partly Cloudy
5:53 AM -2.0 °F -10.1 °F -6.0 °F 83% 30.47 in 6.0 mi NE 3.5 mph - N/A   Mostly Cloudy
6:53 AM -2.0 °F -10.1 °F -6.0 °F 83% 30.50 in 4.0 mi North 3.5 mph - N/A   Clear
7:53 AM -0.0 °F - -5.1 °F 79% 30.53 in 3.0 mi Calm Calm - N/A   Haze
8:53 AM 1.0 °F - -4.0 °F 79% 30.56 in 3.0 mi Calm Calm - N/A   Haze
9:53 AM 1.9 °F - -4.0 °F 76% 30.59 in 4.0 mi Calm Calm - N/A   Haze
10:53 AM 3.9 °F -6.9 °F -2.9 °F 73% 30.58 in 4.0 mi SE 5.8 mph - N/A   Haze
11:53 AM 6.1 °F -2.8 °F -2.0 °F 69% 30.56 in 5.0 mi East 4.6 mph - N/A   Haze
12:53 PM 9.0 °F - -0.0 °F 67% 30.53 in 6.0 mi Calm Calm - N/A   Haze
1:53 PM 12.0 °F 4.1 °F 1.9 °F 64% 30.52 in 6.0 mi ENE 4.6 mph - N/A   Haze
2:53 PM 10.9 °F 2.9 °F 1.9 °F 67% 30.55 in 7.0 mi SE 4.6 mph - N/A   Clear
3:53 PM 10.0 °F 3.6 °F 1.0 °F 67% 30.58 in 7.0 mi ENE 3.5 mph - N/A   Clear
4:53 PM 9.0 °F 2.4 °F -0.0 °F 67% 30.61 in 7.0 mi ENE 3.5 mph - N/A   Clear
5:53 PM 7.0 °F - -0.9 °F 70% 30.63 in 8.0 mi Calm Calm - N/A   Clear
6:53 PM 5.0 °F - -0.9 °F 76% 30.66 in 7.0 mi Calm Calm - N/A   Clear
7:53 PM 1.9 °F - -2.0 °F 83% 30.69 in 5.0 mi Calm Calm - N/A   Clear
8:53 PM 3.9 °F - -0.9 °F 80% 30.71 in 4.0 mi Calm Calm - N/A   Haze
10:53 PM 1.0 °F - -4.0 °F 79% 30.75 in 4.0 mi Calm Calm - N/A   Haze
11:53 PM 1.0 °F - -2.9 °F 83% 30.76 in 4.0 mi Calm Calm - N/A   Clear